Location: Châtres
(48.7102°N, 2.8097°E)
Time: 23:52:26
(UTC+00:00)

Daily predictions for brighter satellites

Satellite Brightness Start Highest point End
(mag) Time Altitude Azimuth Time Altitude Azimuth Time Altitude Azimuth
Cosmos 2266 Rocket 4.1 20:25:48 10° S 20:32:08 74° E 20:38:33 10° NNE
SPOT 5 2.7 20:29:34 10° SSE 20:33:53 83° WSW 20:38:24 10° NNW
Meteor 1-12 Rocket 4.5 20:28:08 10° N 20:34:12 75° ENE 20:40:10 10° SSE
USA 245 3.8 20:30:51 10° SSE 20:34:42 60° ENE 20:39:33 10° N
In-Cosmos 22 4.3 20:30:20 10° SSW 20:35:57 87° WNW 20:41:26 10° N
Cosmos 1953 4.0 20:34:44 10° NNE 20:37:27 18° ENE 20:40:08 10° ESE
Cosmos 2360 Rocket 2.3 20:33:13 10° NNW 20:38:58 86° ENE 20:44:37 10° SSE
Cosmos 1707 4.4 20:36:58 10° SW 20:40:16 33° WNW 20:43:35 10° N
Okean O Rocket 3.5 20:36:29 10° SSW 20:40:17 29° W 20:44:05 10° NW
Ariane Rocket 3.4 20:35:28 10° SE 20:40:24 53° ENE 20:45:22 10° N
Cosmos 2228 Rocket 3.4 20:36:52 10° S 20:41:17 53° E 20:45:45 10° NNE
Cosmos 1315 Rocket 4.2 20:43:54 10° SE 20:47:00 22° E 20:50:08 10° NE
BREEZE-M DEB (TANK) 3.3 20:38:04 10° WSW 20:47:43 72° NNW 20:50:40 10° ENE
Terra 1.8 20:45:24 10° SSE 20:50:06 76° ENE 20:54:50 10° N
SeaSat 1 2.5 20:46:25 10° SE 20:51:18 76° ENE 20:56:14 10° NNW
Cosmos 1655 Rocket 4.1 20:46:41 10° S 20:53:02 74° E 20:59:26 10° NNE
SL-16 R/B 3.4 20:49:41 10° NW 20:54:54 38° WSW 21:00:05 10° S
Cosmos 1356 Rocket 3.4 20:51:13 10° S 20:55:24 73° E 20:59:37 10° NNE
Cosmos 1300 2.6 20:54:10 10° NNW 20:57:43 78° W 21:01:17 10° S
Cosmos 1862 Rocket 3.7 20:53:26 10° S 20:57:45 57° E 21:02:07 10° NNE
Cosmos 1850 Rocket 4.1 20:53:41 10° SSW 20:58:55 85° WNW 21:04:09 10° NNE
Cosmos 968 Rocket 3.5 20:54:09 10° SSW 20:59:15 70° ESE 21:04:27 10° NNE
SJ 16-02 1.5 20:56:16 10° S 21:00:27 53° ESE 21:04:41 10° NNE
Cosmos 1346 Rocket 2.8 20:57:51 10° NNW 21:01:44 81° W 21:05:34 10° S
DNEPR-1 R/B 4.4 20:57:18 10° NW 21:04:08 89° NE 21:09:14 12° SE
Cosmos 2333 Rocket 2.5 21:00:01 10° NNW 21:05:44 67° WSW 21:11:27 10° SSE
SL-14 R/B 3.3 21:02:57 10° SSW 21:06:44 76° W 21:10:34 10° N
Meteor 2-10 Rocket 4.2 21:04:27 10° NNW 21:09:53 57° W 21:15:02 10° S
Kosmos-1783 4.4 21:07:36 10° NW 21:11:04 71° NE 21:17:47 11° SE
Meteor 2-20 4.5 21:07:44 10° N 21:13:57 87° E 21:20:07 10° S
USA 234 3.3 21:09:08 10° ENE 21:15:33 55° SE 21:21:55 10° SW
Cosmos 2237 Rocket 3.9 21:11:55 10° N 21:16:33 25° NE 21:21:09 10° E
Cosmos 1707 Rocket 3.8 21:13:15 10° SSW 21:17:42 76° WNW 21:22:08 10° N
Meteor 1-4 Rocket 2.1 21:15:13 11° S 21:18:01 62° E 21:20:59 10° NNE
Cosmos 1833 4.2 21:12:46 10° SSW 21:18:24 86° ESE 21:24:03 10° NNE
Cosmos 1814 Rocket 4.2 21:14:36 10° NNW 21:19:55 73° WSW 21:24:47 12° SSE
Okean 1-7 3.3 21:18:22 12° SSE 21:22:14 51° E 21:26:26 10° NNE
Cosmos 1932 4.4 21:16:24 10° SSW 21:22:43 75° SE 21:28:59 10° NE
MetOp-A 4.3 21:19:24 14° SSE 21:23:56 62° ENE 21:29:05 10° N
Cosmos 2322 3.9 21:19:34 10° NNW 21:25:15 65° ENE 21:29:58 15° SE
Meteor 1-16 Rocket 4.4 21:20:46 10° NNW 21:26:45 89° W 21:32:11 13° S
EXPRESS MD2 2.4 21:25:21 10° W 21:27:58 62° N 21:30:06 10° E
SL-4 R/B 2.0 21:25:28 10° WNW 21:29:20 78° NNE 21:33:28 10° ESE
SPOT 3 Rocket 3.8 21:24:19 10° S 21:29:20 67° WSW 21:34:31 10° NNW
Landsat 4 4.0 21:27:29 12° S 21:30:29 52° WSW 21:33:51 10° NNW
ERS-1 Rocket 4.0 21:27:38 10° SSW 21:32:21 41° W 21:37:06 10° NNW
Cosmos 1733 Rocket 4.0 21:30:08 10° NNW 21:34:21 44° W 21:38:33 10° SSW
Cosmos 2322 Rocket 3.7 21:30:04 10° NW 21:34:56 30° WSW 21:39:48 10° SSW
Cosmos 2297 Rocket 3.6 21:40:55 16° SE 21:43:27 21° E 21:47:35 10° NE
Cosmos 1455 1.9 21:40:26 10° N 21:43:58 84° E 21:46:13 21° SSE
CZ-4C R/B 2.8 21:44:21 19° SSE 21:46:36 28° ESE 21:51:05 10° ENE
Aureole 3 4.3 21:43:32 10° SSW 21:47:44 59° WNW 21:53:02 10° N
COSMOS 2455 3.4 21:44:03 14° S 21:48:40 38° ESE 21:54:11 10° NE
Landsat 5 3.4 21:45:21 10° NNE 21:49:26 88° ESE 21:53:14 13° SSW
Cosmos 1908 Rocket 3.5 21:47:51 10° N 21:52:12 85° W 21:55:13 19° S
BlueWalker 3 1.7 21:48:38 10° SW 21:52:21 70° SSE 21:56:05 10° ENE
ARIANE 5 R/B 3.3 21:51:36 19° SE 21:54:22 43° ENE 21:58:30 10° N
USA 281 3.6 21:49:08 14° SE 21:54:38 56° NE 22:01:02 10° NNW
Cosmos 2208 Rocket 4.0 21:49:41 10° NNW 21:54:54 75° ENE 21:58:28 20° SSE
Cosmos 1782 Rocket 3.8 21:51:16 10° N 21:55:32 55° ENE 21:58:09 22° SSE
Cosmos 2219 Rocket 2.8 21:50:14 10° NW 21:55:41 49° WSW 21:59:59 16° S
ATLAS CENTAUR R/B 3.8 21:53:46 10° W 21:56:38 22° NW 21:59:36 10° NNE
GENESIS II 4.0 21:53:03 10° SW 21:56:42 83° NW 22:00:21 10° NE
Cosmos 1408 3.2 21:59:09 25° ESE 21:59:52 28° E 22:02:30 10° NNE
H-2A R/B 3.9 21:57:47 16° ESE 22:00:28 29° ENE 22:04:08 10° N
GP-B 3.2 21:58:31 10° N 22:02:56 64° E 22:05:37 23° SSE
ATLAS 2AS CENTAUR R/B 3.9 21:57:35 10° NW 22:03:19 30° WSW 22:08:16 13° SSW
CZ-2C R/B 4.0 22:00:37 10° NNE 22:04:54 46° E 22:07:20 23° SSE
Cosmos 1300 Rocket 3.7 22:03:23 10° N 22:07:40 61° ENE 22:10:06 25° SSE
Cosmos 1745 Rocket 4.1 22:04:38 18° S 22:09:25 67° E 22:15:44 10° NNE
COSMOS 2428 2.8 22:04:23 10° NNW 22:10:06 76° WSW 22:13:54 22° SSE
Cosmos 1953 3.2 22:09:52 10° NNW 22:13:27 39° W 22:15:58 17° SSW
Cosmos 1386 Rocket 4.5 22:09:43 16° S 22:14:47 83° E 22:20:58 10° N
Nadezhda 1 Rocket 4.0 22:08:46 10° N 22:15:06 89° E 22:19:26 21° S
Cosmos 2360 Rocket 4.3 22:18:42 10° WNW 22:22:09 17° W 22:25:36 10° SW
Cosmos 1486 Rocket 4.0 22:19:12 21° S 22:22:38 62° ESE 22:27:47 10° NNE
Cosmos 1315 Rocket 4.3 22:19:19 10° SW 22:22:58 34° WNW 22:26:39 10° N
Cosmos 1242 Rocket 3.3 22:23:42 18° SW 22:25:18 34° WNW 22:27:50 10° N
Terra 4.2 22:25:39 10° WSW 22:28:15 15° W 22:30:51 10° NW
NOSS 0 Rocket 4.0 22:22:07 10° NNW 22:28:23 80° WSW 22:32:23 24° SSE
SeaSat 1 4.4 22:25:53 10° SSW 22:29:14 18° WSW 22:32:36 10° WNW
Cosmos 1703 3.6 22:28:05 31° SE 22:29:18 43° E 22:32:48 10° NNE
Meteor 2-5 Rocket 4.2 22:28:50 24° SSE 22:32:09 49° E 22:37:43 10° NNE
Cosmos 371 Rocket 3.3 22:30:44 24° S 22:33:34 66° ESE 22:38:22 10° NNE
Cosmos 158 Rocket 4.3 22:30:28 10° NNW 22:35:37 56° WSW 22:38:32 24° S
NOSS 8 (H) 4.2 22:32:45 14° SW 22:35:57 88° SE 22:39:01 10° NE
Okean 2 Rocket 4.3 22:32:25 10° N 22:36:26 31° ENE 22:38:45 20° ESE
SJ 16-02 3.8 22:35:52 10° WSW 22:39:07 20° NW 22:42:23 10° N
ALOS 2 3.2 22:39:39 24° SE 22:41:54 46° ENE 22:46:08 10° N
CENTAUR R/B 3.2 22:48:39 25° SSE 22:50:46 32° ESE 22:56:36 10° NE
Cosmos 1174 4.0 22:48:05 10° NW 22:53:06 83° NE 22:55:02 31° SE
SL-16 R/B 3.3 22:51:13 10° NNW 22:56:35 39° NE 23:01:20 13° ESE
PSLV R/B 4.0 22:54:29 10° N 22:58:27 68° WNW 23:00:29 27° SSW
USA 234 3.7 22:52:13 10° NE 22:58:41 65° NNW 23:05:08 10° WSW
Cosmos 2237 Rocket 2.2 22:55:32 10° NNW 23:01:13 75° WSW 23:04:12 29° SSE
Cosmos 2084 Rocket 3.3 22:59:46 29° SSW 23:01:49 67° SE 23:05:56 10° NE
Cosmos 2221 Rocket 4.4 23:00:25 28° SE 23:02:02 39° E 23:06:10 10° NNE
Sich 1 Rocket 3.8 23:02:54 10° N 23:07:16 60° ENE 23:09:07 32° SE
Cosmos 2227 Rocket 2.5 23:04:47 29° SSE 23:07:22 49° ESE 23:12:49 10° NE
SL-4 R/B 2.7 23:04:17 10° W 23:07:56 33° SW 23:08:18 33° SSW
Cosmos 2242 Rocket 4.2 23:05:38 23° SSW 23:08:20 54° WNW 23:12:50 10° N
Cosmos 1709 Rocket 4.2 23:04:08 21° SSW 23:08:36 70° WNW 23:14:58 10° N
Cosmos 773 Rocket 4.4 23:07:06 10° NNW 23:12:05 50° WSW 23:14:27 28° SSW
Cosmos 304 Rocket 4.0 23:10:22 21° SW 23:13:27 67° WNW 23:18:14 10° NNE
Cosmos 1980 4.0 23:09:24 10° NW 23:14:56 56° WSW 23:17:41 29° S
Cosmos 2098 Rocket 4.1 23:08:22 10° NNW 23:15:00 78° W 23:18:33 28° S
Spot 4 4.2 23:19:08 30° SSW 23:21:17 56° W 23:26:03 10° NNW
Spot 2 4.5 23:22:17 32° S 23:24:41 73° WSW 23:29:42 10° NNW
Meteor 1-24 Rocket 3.9 23:22:41 24° SSW 23:26:16 67° WNW 23:31:50 10° N
Okean 1 Rocket 3.3 23:22:19 10° N 23:26:39 61° ENE 23:28:27 33° SE
Cosmos 2297 Rocket 2.4 23:22:39 18° SW 23:26:55 70° WNW 23:32:35 10° NNE
Cosmos 405 Rocket 3.1 23:23:26 10° NNW 23:27:07 51° W 23:28:11 37° SSW
Cosmos 332 Rocket 3.7 23:26:13 32° SSW 23:28:28 78° ESE 23:33:23 10° NNE
Cosmos 2184 Rocket 4.2 23:25:08 27° SSE 23:28:37 63° E 23:34:55 10° NNE
BlueWalker 3 3.0 23:27:04 10° W 23:30:41 45° N 23:34:19 10° ENE
ARIANE 5 R/B 4.3 23:29:03 17° SW 23:30:58 22° W 23:34:21 10° NW
H-2A R/B 2.7 23:29:26 10° NNE 23:33:27 40° E 23:34:41 32° SE
Cosmos 1777 Rocket 4.3 23:30:35 22° SW 23:34:01 66° WNW 23:39:18 10° NNE
COSMOS 2455 3.7 23:28:40 10° WSW 23:34:30 49° NW 23:40:22 10° NNE
CZ-4C R/B 2.7 23:29:56 10° WSW 23:34:30 53° NW 23:40:20 10° NE
H-2A R/B 3.6 23:33:46 25° SW 23:35:19 33° W 23:39:10 10° NNW
Cosmos 2219 3.7 23:33:05 29° SSE 23:35:24 45° ESE 23:40:44 10° NE
Cosmos 1892 2.4 23:36:25 50° SSW 23:37:14 86° W 23:40:47 10° N
USA 281 4.1 23:36:00 22° SSW 23:39:22 35° WSW 23:45:21 10° NW
Cosmos 1538 Rocket 4.0 23:34:40 10° NNW 23:39:54 77° ENE 23:42:45 28° SSE
Cosmos 1825 1.9 23:44:14 51° SSW 23:45:00 77° WNW 23:48:26 10° N
Cosmos 2154 Rocket 4.1 23:42:57 28° S 23:46:20 69° E 23:52:36 10° NNE
NOSS 3-2 (A) 3.5 23:45:45 32° S 23:47:48 47° ESE 23:53:36 10° NE
Cosmos 1975 Rocket 4.3 23:48:45 23° SE 23:50:27 30° E 23:54:18 10° NNE
Cosmos 2263 Rocket 2.7 23:51:47 29° SSE 23:54:06 45° ESE 23:59:22 10° NE
PSLV R/B 3.5 23:50:16 10° N 23:54:28 78° WNW 23:56:06 36° SSW
Orbus 7S? 4.3 23:53:29 10° NW 23:55:59 33° NNE 23:58:50 10° E
